Simultaneous Nadir Overpasses (SNOs) Predictions

Prediction of SNOs between GOES-16 and NOAA-19 Satellite Orbit:

Table of predicted SNOs for the next 14.0 days since TLE Epoch: 10/1/2022
Index Date Time (GOES-16) GOES-16 Lat,Lon NOAA-19 Lat,Lon Distance(km) Time Diff (sec)
1 10/02/2022 13:12:32 -0.04, -75.20 0.55, -77.73 288.59 80
2 10/03/2022 13:03:20 -0.04, -75.20 -0.15, -74.84 42.49 80
3 10/04/2022 12:51:26 -0.04, -75.21 -0.79, -71.93 373.60 80
4 10/07/2022 01:09:16 0.04, -75.21 -0.31, -76.80 180.16 80
5 10/08/2022 01:00:03 0.04, -75.23 0.32, -73.89 151.83 80
6 10/09/2022 00:48:10 0.04, -75.24 1.02, -71.00 483.97 80
7 10/10/2022 13:17:52 -0.04, -75.27 0.76, -78.76 397.52 80
8 10/11/2022 13:05:59 -0.04, -75.29 0.11, -75.85 64.85 80
9 10/12/2022 12:56:46 -0.04, -75.31 -0.61, -72.96 268.01 80
10 10/15/2022 01:14:36 0.04, -75.34 -0.54, -77.82 282.81 80
